Theta_e
313 313 310 308 308 309 308 307 306 307 308 309 308 307 303 303 304 305 305 306 306 305 305 305 305 305 306 308 307 308 308 309 310 311 311 312 312 312 313 314 315 316 317
313 313 311 309 308 309 307 307 307 308 308 307 308 307 305 303 302 305 306 306 306 306 305 305 305 305 306 307 307 308 309 309 310 311 311 312 312 311 311 312 314 315 315
313 314 311 309 309 309 307 308 308 309 309 308 307 307 306 303 303 302 306 306 306 306 305 304 305 304 306 306 307 308 310 311 310 311 311 311 310 311 311 312 312 313 314
314 313 310 308 308 308 307 308 310 310 309 308 307 306 306 305 303 302 302 306 305 305 304 303 304 304 306 306 306 308 309 311 312 311 310 310 310 310 310 310 310 310 311
314 313 310 308 308 308 308 309 311 310 309 308 308 308 306 305 303 302 302 305 304 305 304 302 302 303 306 306 305 307 309 309 310 310 309 309 309 309 310 309 309 309 309
314 313 308 308 309 309 309 310 310 310 309 309 309 308 308 305 302 301 302 303 304 305 304 302 302 303 305 306 305 305 307 308 308 308 308 308 308 308 309 309 308 308 308
314 312 309 309 309 309 309 310 310 310 309 309 308 308 307 304 302 302 302 303 304 305 304 304 303 302 305 305 306 306 305 306 308 308 308 308 308 307 308 307 307 307 306
313 311 309 309 309 310 310 311 312 311 309 308 307 307 306 303 303 302 301 301 303 304 304 304 305 301 302 304 306 305 306 307 305 306 307 308 308 307 307 308 307 307 307
313 311 310 310 310 309 309 310 310 310 309 307 307 305 305 304 303 302 301 301 302 304 304 303 304 305 304 302 301 303 304 306 307 305 305 305 306 307 308 308 309 308 308
313 312 310 310 310 309 309 308 308 308 309 307 306 306 306 304 303 302 301 300 301 301 303 304 303 304 304 305 303 302 301 304 305 305 306 306 306 306 307 307 309 307 308
312 312 311 310 310 309 309 308 308 307 307 306 306 306 305 305 303 302 300 299 299 299 300 303 305 304 304 303 305 304 303 303 305 305 306 306 305 306 307 307 308 309 309
313 312 311 310 310 309 309 308 307 307 306 306 306 305 304 303 303 301 299 299 299 300 302 305 304 304 304 303 303 304 304 305 305 305 306 305 304 304 304 306 306 306 307
313 312 311 310 310 308 308 308 307 306 306 306 305 304 304 302 301 300 300 300 301 302 303 303 303 302 303 303 303 303 304 304 305 305 305 305 304 303 304 304 305 305 304
313 312 311 310 308 308 308 307 307 307 307 306 306 306 305 303 302 300 300 300 300 300 301 301 301 300 299 300 302 302 302 303 305 305 305 305 305 304 303 303 304 305 305
312 310 310 308 308 307 307 307 307 307 306 306 306 306 306 304 302 300 300 300 299 299 300 299 299 299 299 299 299 302 302 301 303 304 305 305 305 305 305 304 305 306 305
311 310 308 308 307 309 308 307 307 307 306 306 306 306 306 305 303 301 300 300 299 300 300 299 300 300 300 300 300 300 301 302 301 302 304 304 305 305 305 306 306 305 306
309 309 308 308 309 308 308 307 306 306 306 307 306 306 306 305 303 302 301 300 300 299 300 299 299 299 299 299 300 300 299 298 298 300 301 303 304 304 305 305 304 306 305
309 310 309 308 308 308 308 307 307 306 306 306 306 306 305 305 304 303 301 301 300 300 299 299 298 298 298 299 299 299 297 297 297 298 300 301 301 302 303 304 305 305 305
310 308 308 309 308 308 307 307 306 306 306 306 306 306 306 305 304 303 302 301 300 299 298 298 298 298 298 298 299 299 299 297 297 296 298 299 301 302 301 302 303 303 305
310 310 309 309 308 308 308 308 307 307 306 306 307 307 305 304 304 302 301 300 299 298 298 297 298 297 298 298 298 298 298 297 296 296 295 297 298 299 300 300 300 301 303
310 309 309 309 308 309 308 308 309 309 308 307 307 307 305 304 303 301 300 299 298 298 297 297 297 297 297 297 297 297 297 296 295 295 295 294 294 297 298 299 299 299 300
311 310 310 310 308 309 309 309 307 307 307 308 307 305 304 303 301 300 299 298 297 297 297 297 297 297 297 297 297 297 297 295 295 295 294 292 291 294 297 298 298 298 300
310 310 310 309 309 309 309 309 309 308 307 306 306 304 303 301 299 298 298 297 297 297 297 296 297 297 297 297 296 296 296 295 295 294 294 292 291 294 297 298 298 299 299
310 310 310 309 309 309 310 310 309 307 305 305 304 303 302 301 299 298 297 297 296 296 296 296 296 296 296 296 296 295 295 294 293 293 292 291 291 294 296 297 298 299 299
308 308 309 310 310 310 309 309 306 305 305 305 304 303 302 300 298 298 297 297 297 297 296 296 296 296 295 295 294 294 293 292 291 291 291 291 291 293 296 297 297 298 299
309 309 309 310 310 310 308 307 305 305 305 305 304 302 300 299 298 297 297 297 298 297 297 297 296 295 294 294 292 291 291 290 291 291 291 291 291 294 295 295 297 297 298
Wind_Speed
5 4 5 7 5 3 2 2 3 6 9 12 13 13 18 18 17 14 12 12 14 14 13 12 12 14 15 15 15 13 9 7 11 8 5 5 6 9 11 7 9 9 7
5 6 7 7 6 5 2 2 4 6 10 12 12 12 14 18 19 15 13 13 16 17 16 12 11 13 13 16 17 13 9 7 9 6 4 2 4 8 10 9 10 11 10
7 7 7 7 7 5 3 2 5 7 11 12 12 11 11 16 19 18 13 13 15 16 16 14 12 13 13 15 17 15 9 6 5 6 3 1 4 7 7 7 8 10 10
11 8 6 7 8 5 4 4 6 8 12 12 12 11 11 16 17 19 16 12 15 15 17 14 12 12 13 14 16 16 13 4 1 3 2 2 2 5 6 6 9 10 11
13 8 6 9 8 5 4 5 6 9 12 12 12 11 12 17 18 21 16 12 12 15 15 15 10 10 11 12 14 16 14 11 5 3 3 0 1 1 2 2 4 8 11
13 7 7 11 8 5 3 4 6 10 11 12 12 11 11 14 18 19 16 15 11 13 15 14 11 9 9 10 11 12 13 9 7 7 5 3 3 2 2 2 2 4 3
11 6 10 10 8 6 5 6 8 9 12 12 12 9 9 12 15 19 16 13 13 9 12 14 12 9 9 8 10 11 11 10 6 5 3 4 3 0 3 2 2 4 5
10 6 9 10 7 5 6 9 10 8 10 11 9 8 10 12 16 17 16 14 11 10 11 14 15 11 10 9 7 8 9 10 8 6 6 4 3 1 3 3 1 2 2
11 8 7 9 7 8 8 9 9 8 8 9 8 8 9 10 11 14 18 14 11 11 10 12 15 14 12 10 9 9 7 6 7 8 6 5 3 3 3 3 1 1 0
12 10 6 6 8 9 10 9 10 11 9 10 10 9 10 12 13 16 19 15 12 11 11 10 10 12 15 15 9 9 6 6 3 6 6 7 4 3 4 3 3 2 6
11 10 10 9 8 8 11 9 9 8 9 9 9 9 11 14 14 19 18 14 13 13 11 10 8 9 12 15 11 10 7 6 4 6 4 4 6 5 5 5 4 2 3
12 10 11 10 9 9 8 7 6 7 5 9 10 9 10 13 14 16 14 14 12 12 8 8 9 10 9 14 13 12 9 7 7 7 6 7 5 5 6 6 4 5 5
13 11 10 10 10 9 7 3 3 2 5 9 8 8 10 13 14 14 10 12 9 9 8 9 9 10 11 11 13 13 13 9 7 7 8 8 7 8 6 6 5 3 3
13 11 10 9 7 5 4 3 3 5 6 7 8 8 10 13 13 12 9 11 9 9 8 10 9 10 12 14 13 12 13 14 9 9 10 8 7 4 3 4 4 5 5
10 9 6 7 7 7 4 3 4 5 7 8 10 12 11 11 12 13 11 11 11 10 10 11 12 12 12 13 13 10 12 12 13 8 6 9 7 6 5 6 7 6 5
10 8 8 7 8 5 3 2 5 4 4 7 11 12 10 11 12 10 9 10 11 10 10 11 11 12 12 13 13 12 11 13 13 11 10 10 7 8 8 7 6 9 8
7 8 7 8 6 4 4 3 4 5 8 8 9 11 11 11 11 9 11 12 10 11 9 11 14 15 14 14 12 7 11 14 17 18 13 10 7 8 8 7 10 6 9
3 6 6 6 3 4 2 4 5 6 8 9 9 11 10 12 10 11 12 11 11 10 13 13 11 15 14 14 15 9 10 13 16 15 14 13 12 9 6 4 6 7 10
3 2 6 4 5 4 4 3 5 9 10 11 9 11 10 10 11 11 13 13 10 10 12 12 12 12 13 12 11 10 10 14 17 17 12 12 10 5 6 7 6 6 5
6 5 6 7 6 4 5 6 7 10 10 9 11 11 7 12 14 11 11 11 9 12 14 14 14 13 11 11 11 12 11 13 17 16 14 14 14 12 11 14 13 9 7
5 4 5 4 5 6 5 8 10 12 11 13 13 10 8 12 11 13 10 9 8 11 12 15 14 11 13 12 12 10 12 15 18 18 19 18 15 15 15 14 14 15 13
7 8 8 6 4 5 7 8 9 11 12 13 14 8 8 13 15 10 8 7 9 11 11 13 14 14 15 13 12 13 14 16 19 23 21 17 15 13 15 13 11 12 12
5 7 7 6 8 4 7 10 11 10 12 12 8 8 10 16 11 8 7 10 11 11 13 14 15 17 16 14 16 16 17 21 24 25 21 16 13 12 11 11 10 10 11
5 7 6 5 5 7 10 12 10 10 10 5 6 5 11 17 10 7 10 12 11 10 11 15 17 16 16 18 18 19 22 25 25 22 18 15 12 11 11 10 10 10 12
4 3 5 8 8 10 10 10 9 10 8 8 8 10 15 13 9 9 10 11 9 12 14 17 20 19 18 19 21 24 24 22 19 17 15 13 12 10 10 10 11 12 11
3 5 4 6 9 9 8 9 8 10 11 10 6 4 8 10 8 8 8 11 15 16 17 20 22 20 21 22 22 21 19 18 17 15 13 12 10 9 9 9 9 9 11
Wind_Direction
228 285 287 254 233 207 267 336 333 333 334 337 344 352 1 6 6 6 1 353 354 353 352 347 354 346 348 352 351 336 317 290 277 284 300 345 3 35 48 44 39 39 58
240 274 284 248 219 205 244 269 321 336 338 338 338 341 358 9 5 359 3 360 354 349 351 350 347 338 352 358 360 352 327 294 255 283 280 331 17 34 30 25 52 49 50
236 251 265 234 200 203 219 283 324 330 334 338 337 338 347 2 8 2 351 359 357 340 347 345 346 345 352 3 358 1 346 308 211 248 285 327 48 47 43 50 61 64 57
221 240 253 224 184 190 227 275 314 326 331 331 334 337 348 354 356 358 353 350 354 347 352 347 347 352 1 5 4 11 23 60 147 248 140 154 85 74 70 67 69 67 61
219 233 256 189 188 210 254 279 312 326 322 321 328 330 343 348 352 348 346 349 351 345 355 356 348 357 0 8 7 16 28 46 63 87 88 123 135 37 53 59 69 60 62
215 239 200 182 198 224 260 291 317 330 326 316 324 333 332 344 357 1 354 350 347 347 358 11 9 1 7 7 8 16 23 30 53 66 57 25 8 339 197 204 355 17 53
210 240 198 187 214 241 262 288 307 325 327 325 329 327 331 356 359 1 359 348 353 348 360 5 3 357 4 10 9 6 20 25 32 12 7 350 342 340 143 123 48 70 83
204 219 200 199 212 250 278 288 295 319 327 334 343 348 353 358 358 356 352 352 347 351 356 1 6 359 354 3 26 353 5 11 7 15 28 9 320 182 139 68 26 96 100
207 198 197 206 233 261 297 300 316 313 321 347 350 356 354 344 332 349 351 346 347 348 352 356 4 8 1 346 337 336 342 11 358 357 2 8 16 19 143 47 332 249 216
211 203 219 234 243 257 276 293 312 312 318 333 338 343 324 324 321 341 341 341 339 338 346 345 350 358 6 358 345 345 333 335 351 323 341 352 323 319 318 342 28 244 285
202 217 225 238 262 266 284 282 294 322 318 335 335 337 331 315 322 335 336 339 334 332 328 336 341 345 354 3 355 351 355 351 342 339 331 320 355 342 310 266 272 29 283
205 230 227 242 258 273 270 281 290 293 328 342 351 353 355 347 332 337 342 340 339 343 348 1 354 343 351 358 6 355 329 333 325 308 299 299 306 316 300 298 298 283 293
210 215 225 241 259 262 245 257 20 24 342 342 351 350 353 357 355 348 359 3 3 2 6 1 8 359 354 351 356 4 354 323 324 312 304 303 298 314 280 258 257 274 265
214 225 237 248 241 233 208 209 283 296 303 340 338 336 339 351 358 10 13 11 16 2 355 352 360 2 359 354 346 350 355 354 339 312 300 300 279 277 279 264 237 262 274
208 209 239 219 198 181 210 253 282 295 306 320 332 323 318 333 354 13 13 6 4 357 349 341 339 339 338 343 345 342 339 337 355 343 334 304 291 277 250 238 255 264 270
201 221 201 190 194 234 251 284 287 273 329 321 305 318 307 317 343 360 5 355 347 343 340 349 350 346 343 339 337 346 339 350 341 350 341 317 306 272 265 255 276 264 255
194 197 207 207 225 251 253 274 282 321 320 310 322 329 314 321 323 343 348 324 328 337 332 342 341 341 341 343 310 342 347 346 343 336 341 356 328 305 266 262 270 273 274
170 215 205 214 240 269 282 323 328 321 329 322 309 307 325 316 300 310 331 328 324 335 336 332 333 334 334 332 347 348 352 349 344 329 334 329 319 332 319 296 276 257 264
245 238 190 228 255 273 286 298 331 319 327 325 334 334 321 312 298 302 315 311 318 329 332 330 329 327 328 326 324 313 331 335 335 337 322 314 316 313 314 355 318 307 288
229 254 244 268 250 255 276 294 296 313 327 322 323 309 305 330 326 312 310 317 322 332 334 330 334 332 326 328 341 340 335 340 339 337 337 321 295 312 317 311 310 296 311
211 236 259 265 251 262 273 288 315 313 312 326 327 312 309 325 315 315 314 318 318 327 335 333 332 334 332 326 326 328 331 328 328 328 325 317 307 297 286 291 301 306 293
234 242 240 263 251 258 288 310 324 308 308 306 310 297 323 335 322 314 315 317 337 338 342 333 332 326 327 324 324 322 318 320 322 326 324 314 300 289 283 282 290 288 287
251 231 237 243 269 276 285 307 305 327 327 332 326 330 338 349 343 335 344 342 336 335 337 340 335 329 327 323 327 318 314 317 320 323 321 316 305 289 280 275 280 282 285
246 241 250 273 286 282 289 314 315 319 335 336 339 326 349 2 357 351 339 330 334 330 335 338 340 336 328 324 320 316 315 317 317 317 317 313 305 287 279 277 275 282 280
211 252 275 258 267 285 298 296 310 325 335 331 332 348 347 360 353 326 334 336 349 339 330 326 331 328 323 319 317 318 319 321 321 322 318 315 307 290 281 280 277 266 307
243 271 294 278 270 281 290 302 310 317 315 309 298 323 359 2 358 339 322 320 329 327 328 326 330 325 323 323 324 326 329 331 331 329 325 319 310 292 283 277 279 280 296